Wind_Speed
6 6 6 7 7 7 7 7 7 7 7 7 6 6 6 6 5 4 3 2 2 2 1 0 2 3 3 4 4 4 4 5 6 6 6 6 7 7 8 9 9 9 9
6 7 6 5 5 5 6 5 5 5 6 6 5 5 5 5 4 4 3 3 2 2 2 1 0 1 2 2 3 4 4 5 6 6 6 6 7 7 8 9 10 11 11
8 8 8 7 6 5 6 5 5 5 5 6 5 4 5 5 4 3 3 4 3 3 3 2 1 1 2 2 3 4 5 5 6 7 7 8 8 9 9 9 10 11 11
9 9 9 8 7 7 6 6 6 6 5 5 5 5 5 5 4 4 3 3 4 4 3 3 3 3 4 4 4 4 4 5 6 7 8 8 9 9 9 10 10 11 12
11 10 10 10 9 9 8 8 7 6 6 6 5 5 5 5 5 5 4 4 5 5 5 4 4 5 5 5 5 5 6 6 7 7 8 8 9 9 10 10 11 11 12
12 11 11 11 11 11 11 9 9 8 8 7 6 6 6 6 6 6 6 6 6 6 6 6 6 6 6 6 6 7 7 7 8 8 9 9 10 10 10 10 11 11 11
14 14 14 14 13 13 13 12 11 11 10 9 8 8 7 7 7 7 7 8 9 9 8 8 7 8 8 7 7 8 8 8 9 9 9 9 10 10 11 11 12 11 12
18 17 17 17 16 15 14 14 13 13 12 11 11 10 10 10 9 10 10 11 11 10 9 9 9 9 9 9 9 9 10 10 10 10 11 11 11 11 12 12 13 13 13
20 20 20 19 19 18 17 17 16 16 15 14 14 13 12 12 11 12 12 13 13 12 12 11 11 11 11 11 11 11 11 12 12 12 12 13 13 13 13 14 14 14 14
22 22 21 21 22 21 20 20 19 19 18 18 16 16 15 14 14 14 15 14 13 13 14 13 12 12 13 12 12 12 13 13 13 14 14 14 15 15 15 15 15 16 16
23 23 22 22 22 22 22 22 22 21 20 20 20 19 18 17 16 16 16 16 16 15 16 15 14 14 14 14 13 13 14 14 14 15 16 16 16 16 16 16 16 17 17
25 24 23 23 23 24 24 25 24 23 23 23 22 21 21 20 19 18 18 17 17 17 18 18 17 16 16 16 15 15 16 15 15 16 17 17 17 18 18 18 18 19 19
27 26 26 25 25 25 25 26 26 26 26 24 23 22 23 22 20 21 20 19 19 19 19 18 19 19 18 18 18 18 18 18 18 18 18 19 19 20 20 20 21 21 21
28 28 28 28 27 27 27 27 27 28 28 26 24 24 23 23 22 22 22 23 22 21 21 20 21 21 21 21 21 21 21 21 21 21 21 21 21 21 22 23 23 23 24
30 30 30 30 29 29 29 29 30 30 29 28 27 26 26 26 25 25 24 24 24 23 23 23 23 23 23 24 24 24 23 24 24 24 24 24 24 24 24 25 25 25 25
32 31 31 31 31 31 31 31 32 33 32 30 29 29 29 29 28 27 26 26 27 26 26 25 25 25 26 26 25 25 26 26 26 27 27 27 27 27 27 27 27 27 27
31 32 33 32 32 32 33 34 34 34 33 33 32 32 32 31 29 29 28 28 28 29 29 27 27 27 27 27 27 28 28 28 29 29 29 30 30 29 29 29 28 28 28
31 32 33 33 33 34 34 35 34 34 33 34 34 33 32 30 31 31 29 29 29 29 29 29 29 29 29 29 29 30 30 30 30 30 31 31 30 30 30 30 29 29 29
33 33 32 33 34 36 36 35 36 35 35 35 34 34 34 33 32 31 31 31 31 31 31 30 30 29 30 30 31 31 31 31 31 31 31 31 31 31 31 32 31 31 31
34 34 34 34 35 35 35 35 36 37 37 36 35 35 35 34 33 32 32 33 33 32 32 31 31 31 32 32 32 33 34 34 34 33 33 33 33 33 33 33 33 33 32
34 34 34 35 35 36 36 36 37 37 37 37 37 36 36 35 34 34 34 34 34 33 33 33 33 33 33 33 33 34 35 35 35 35 35 35 36 36 36 36 35 35 35
34 34 35 35 36 35 36 37 37 37 38 39 38 38 37 36 36 36 35 35 35 34 34 35 35 35 34 35 35 35 36 36 36 36 36 37 37 37 37 37 36 37 37
31 33 34 35 36 35 35 36 37 37 38 38 37 38 38 37 37 36 36 36 36 36 36 36 36 37 36 37 36 36 36 38 37 37 38 38 38 38 37 37 38 38 38
31 31 31 32 33 34 35 36 36 37 37 38 38 38 39 38 38 37 37 37 37 37 38 37 37 37 38 37 37 38 38 38 38 38 38 37 37 38 38 37 37 37 38
30 30 30 31 32 32 33 34 36 38 39 39 39 39 38 38 38 38 38 38 38 39 39 39 39 39 38 38 38 38 38 38 38 38 38 38 38 37 37 37 37 37 37
30 30 31 32 33 33 34 35 36 36 37 38 37 37 37 38 39 40 40 40 40 40 40 40 40 39 39 38 38 38 38 38 38 38 38 37 36 36 36 36 37 37 37
Wind_Direction
355 3 8 14 21 26 28 33 41 44 43 45 48 53 55 54 55 58 62 58 53 50 44 316 219 221 234 243 251 258 258 265 264 263 266 271 276 279 275 269 267 270 273
324 329 335 343 356 4 6 7 17 21 23 24 28 32 33 36 38 41 41 37 33 26 15 9 211 216 235 251 258 264 274 273 270 266 269 273 276 281 280 276 274 273 274
301 309 308 309 319 332 342 344 346 351 360 2 359 6 17 14 14 21 18 19 16 1 347 337 318 271 282 288 274 268 268 277 275 273 273 275 279 282 284 283 278 276 277
287 296 298 296 298 307 317 321 318 324 331 344 349 351 351 354 354 351 352 354 356 351 334 316 302 284 287 298 297 285 281 279 278 275 275 276 281 285 286 287 286 283 282
275 282 292 291 290 295 300 302 302 308 317 328 335 341 337 331 332 328 320 318 319 321 320 312 308 299 288 295 306 305 293 288 285 282 278 279 283 287 286 288 288 287 285
269 276 281 283 284 287 288 287 293 300 304 306 312 318 322 319 313 311 304 302 299 297 301 301 302 302 298 295 295 303 300 295 295 291 288 287 289 291 291 291 292 292 289
266 270 271 275 279 283 283 286 289 292 294 290 292 297 301 300 299 296 297 298 294 289 288 287 291 294 294 295 293 297 300 297 295 293 294 294 296 295 293 290 289 290 290
263 266 266 268 271 276 277 279 280 283 287 282 281 283 287 287 285 285 288 291 289 285 283 283 285 288 291 289 291 292 294 293 291 292 295 295 294 294 293 291 291 289 288
259 263 265 266 265 268 271 273 276 277 279 278 277 278 279 280 280 283 285 285 285 285 283 281 282 283 285 285 283 287 288 289 288 288 289 291 289 291 293 292 290 290 291
257 260 263 263 263 263 266 268 270 271 273 272 273 275 275 277 276 280 283 285 282 279 281 282 280 280 281 282 283 284 287 287 287 286 286 289 292 289 291 291 290 290 291
257 256 258 261 260 259 260 263 264 266 268 270 269 273 275 276 274 278 284 285 284 281 279 280 277 277 278 281 281 282 284 282 283 286 285 286 287 287 287 288 287 288 289
255 255 256 258 257 256 258 261 263 265 268 269 271 274 275 276 276 278 282 283 284 283 278 277 274 275 276 276 276 279 282 282 283 285 286 285 285 285 285 286 285 285 286
256 255 254 256 257 258 260 262 264 266 269 270 271 274 273 273 276 275 279 281 279 281 279 274 275 275 276 275 275 276 279 281 282 284 285 286 285 286 286 286 286 285 285
254 253 252 253 256 259 260 261 264 265 268 268 268 272 272 273 275 274 278 278 276 277 278 272 272 274 276 275 274 274 277 279 281 282 284 284 285 286 285 284 284 283 284
253 253 252 252 252 256 259 259 262 263 265 265 266 269 271 272 273 274 278 276 275 275 276 274 271 272 273 274 274 274 276 278 280 282 283 283 284 285 287 286 284 283 282
255 253 250 250 252 255 258 260 261 262 262 262 263 265 269 270 270 272 276 276 274 275 276 272 272 273 272 272 274 274 277 278 279 280 281 281 282 283 284 286 285 284 283
257 254 250 250 253 255 257 259 259 259 259 261 262 265 268 269 270 271 271 272 273 274 274 272 272 275 274 273 273 275 277 278 279 278 278 279 281 282 283 284 283 282 282
258 255 254 252 253 256 258 256 257 258 259 261 262 264 267 269 269 268 268 270 272 272 273 272 274 276 275 273 273 275 277 276 279 280 278 277 279 280 281 281 280 279 279
257 258 256 254 255 256 256 256 255 255 259 262 264 266 267 269 271 270 269 271 272 272 272 272 275 277 278 276 274 274 274 275 277 278 277 277 278 279 279 279 279 279 279
257 259 260 259 257 257 257 258 258 257 259 262 264 266 268 269 269 270 271 272 273 272 271 273 274 276 278 277 277 276 275 275 275 275 276 277 278 279 279 279 279 279 279
259 258 258 258 257 256 256 256 258 259 258 260 263 267 269 270 269 270 270 271 272 271 272 273 275 277 277 277 277 276 274 274 274 275 276 277 277 277 277 276 277 277 277
258 258 258 257 256 256 255 256 258 258 258 260 263 267 268 269 271 270 269 270 270 271 272 273 274 275 277 277 276 276 273 272 273 274 275 277 277 277 275 275 275 275 275
261 259 257 256 257 257 257 257 257 259 260 261 263 266 267 270 270 271 272 271 272 272 272 274 274 275 276 277 276 275 274 273 273 273 273 275 275 275 275 275 274 274 274
260 258 256 255 256 255 257 257 259 260 261 262 264 266 266 267 269 271 272 273 272 273 273 273 274 274 275 276 276 274 274 274 273 273 274 274 275 275 274 274 274 273 273
257 256 255 255 256 257 258 259 260 260 261 262 264 265 266 267 269 271 272 273 273 273 272 272 272 273 273 274 275 274 274 273 272 273 273 275 274 274 274 273 273 272 273
256 256 256 257 257 258 259 260 261 262 265 266 267 268 268 269 270 271 271 271 272 273 273 273 273 272 273 274 274 275 276 275 273 273 274 274 273 273 274 273 272 273 273
Height
5911 5910 5909 5908 5907 5905 5904 5903 5902 5900 5899 5898 5897 5896 5895 5895 5894 5893 5892 5892 5891 5891 5890 5890 5890 5890 5891 5891 5891 5891 5891 5891 5891 5892 5892 5891 5891 5891 5890 5890 5890 5890 5889
5911 5910 5909 5908 5907 5906 5905 5903 5902 5901 5900 5899 5898 5897 5896 5895 5894 5893 5892 5892 5891 5891 5890 5890 5890 5890 5890 5890 5890 5890 5890 5890 5890 5890 5890 5890 5890 5889 5888 5888 5888 5887 5887
5911 5910 5909 5908 5907 5906 5905 5904 5903 5901 5900 5899 5898 5897 5896 5895 5894 5893 5893 5892 5891 5891 5890 5890 5889 5889 5889 5889 5888 5888 5888 5888 5888 5888 5888 5888 5888 5887 5887 5886 5885 5885 5885
5909 5908 5907 5907 5906 5905 5904 5903 5902 5901 5900 5899 5897 5896 5896 5895 5894 5893 5892 5892 5891 5891 5890 5890 5889 5889 5888 5888 5887 5887 5886 5886 5886 5886 5886 5886 5886 5885 5885 5884 5883 5882 5882
5907 5906 5906 5905 5904 5904 5903 5902 5901 5900 5899 5898 5897 5896 5895 5894 5893 5892 5892 5891 5891 5890 5889 5889 5888 5888 5887 5887 5886 5885 5885 5884 5884 5884 5884 5883 5883 5883 5882 5882 5881 5880 5879
5904 5904 5903 5903 5902 5902 5901 5901 5900 5899 5898 5897 5896 5895 5894 5893 5892 5891 5891 5890 5889 5889 5888 5887 5887 5886 5886 5885 5884 5884 5883 5883 5882 5882 5882 5881 5881 5880 5879 5879 5878 5877 5876
5900 5901 5900 5900 5900 5899 5898 5898 5897 5897 5896 5895 5895 5893 5892 5891 5890 5889 5889 5888 5887 5887 5886 5886 5885 5884 5884 5883 5882 5882 5881 5881 5880 5880 5879 5879 5878 5877 5877 5876 5875 5874 5873
5896 5897 5897 5896 5896 5896 5896 5895 5895 5894 5893 5892 5892 5891 5890 5889 5888 5887 5887 5886 5885 5884 5884 5883 5883 5882 5882 5881 5880 5880 5879 5878 5878 5877 5876 5876 5875 5874 5873 5873 5872 5871 5870
5891 5892 5892 5892 5892 5892 5892 5892 5892 5891 5890 5889 5889 5888 5887 5887 5886 5885 5884 5882 5881 5881 5881 5880 5880 5879 5879 5878 5878 5877 5876 5876 5875 5874 5873 5872 5872 5871 5870 5869 5869 5868 5867
5886 5887 5887 5887 5887 5888 5888 5888 5888 5887 5886 5885 5885 5885 5884 5883 5882 5881 5880 5879 5878 5877 5877 5877 5877 5876 5876 5875 5875 5874 5874 5873 5872 5871 5870 5869 5868 5867 5866 5865 5864 5864 5863
5879 5880 5881 5881 5882 5882 5882 5882 5882 5882 5881 5881 5880 5880 5880 5879 5878 5877 5876 5875 5875 5874 5873 5873 5873 5872 5872 5871 5871 5870 5870 5869 5868 5867 5866 5865 5864 5863 5862 5861 5860 5859 5858
5872 5873 5874 5875 5875 5875 5876 5876 5876 5877 5876 5876 5875 5875 5874 5874 5873 5872 5872 5871 5870 5870 5869 5869 5868 5868 5868 5867 5866 5866 5865 5865 5864 5863 5862 5861 5859 5858 5857 5856 5855 5854 5853
5864 5865 5866 5867 5868 5869 5869 5870 5870 5870 5870 5870 5869 5868 5868 5867 5867 5866 5866 5865 5865 5864 5863 5863 5863 5863 5863 5862 5861 5861 5860 5859 5858 5858 5857 5856 5854 5853 5852 5851 5850 5849 5848
5857 5858 5858 5860 5861 5862 5862 5863 5863 5863 5863 5863 5863 5862 5862 5861 5861 5861 5861 5860 5859 5858 5858 5858 5858 5857 5856 5856 5855 5855 5854 5854 5853 5852 5851 5850 5849 5847 5846 5845 5843 5842 5841
5848 5849 5850 5851 5852 5853 5854 5855 5855 5855 5856 5856 5856 5856 5856 5855 5855 5855 5854 5853 5853 5852 5852 5851 5851 5850 5850 5849 5848 5848 5847 5847 5846 5845 5844 5843 5842 5841 5840 5838 5837 5835 5834
5838 5839 5841 5842 5843 5844 5845 5846 5846 5847 5848 5848 5849 5849 5849 5848 5848 5847 5847 5846 5846 5845 5844 5844 5843 5843 5842 5842 5841 5840 5840 5839 5838 5838 5837 5836 5835 5834 5832 5831 5829 5828 5827
5828 5829 5830 5831 5833 5834 5836 5836 5837 5838 5839 5839 5840 5840 5841 5840 5840 5839 5839 5838 5838 5837 5837 5836 5835 5835 5834 5834 5833 5832 5832 5831 5830 5829 5828 5827 5827 5826 5824 5823 5821 5820 5819
5818 5819 5820 5821 5823 5825 5826 5827 5828 5829 5830 5831 5831 5832 5832 5831 5831 5830 5830 5830 5829 5829 5828 5828 5827 5826 5826 5825 5824 5824 5823 5822 5821 5820 5819 5819 5818 5817 5815 5814 5813 5812 5810
5808 5809 5810 5811 5813 5815 5816 5816 5818 5819 5821 5821 5822 5822 5822 5822 5822 5821 5821 5820 5820 5819 5819 5818 5818 5817 5817 5816 5815 5814 5814 5813 5812 5811 5810 5809 5809 5808 5806 5805 5804 5803 5802
5798 5799 5800 5801 5802 5803 5805 5806 5808 5809 5811 5812 5812 5813 5813 5813 5812 5812 5811 5811 5810 5810 5809 5809 5809 5808 5807 5806 5805 5804 5804 5803 5802 5801 5800 5800 5799 5798 5796 5795 5794 5793 5792
5786 5787 5789 5789 5791 5792 5794 5795 5797 5799 5800 5801 5802 5802 5803 5802 5802 5801 5800 5800 5800 5799 5799 5799 5799 5798 5797 5796 5795 5794 5793 5792 5792 5791 5790 5789 5788 5787 5786 5785 5784 5783 5782
5775 5776 5778 5779 5780 5781 5783 5785 5786 5788 5790 5790 5791 5792 5792 5791 5791 5791 5790 5789 5789 5789 5788 5788 5788 5787 5786 5786 5785 5783 5782 5781 5780 5780 5779 5778 5777 5776 5774 5774 5773 5772 5771
5765 5766 5768 5769 5771 5772 5773 5775 5776 5778 5779 5780 5780 5781 5781 5781 5781 5780 5780 5779 5779 5779 5778 5777 5776 5776 5775 5774 5773 5772 5771 5770 5769 5768 5767 5766 5765 5764 5763 5762 5761 5760 5760
5755 5757 5758 5760 5761 5762 5763 5765 5766 5767 5768 5770 5770 5770 5770 5770 5769 5769 5769 5768 5768 5767 5766 5766 5765 5764 5763 5762 5761 5760 5759 5758 5757 5756 5755 5755 5753 5752 5751 5750 5750 5749 5749
5746 5748 5749 5751 5751 5753 5754 5755 5756 5757 5758 5758 5758 5759 5758 5758 5758 5757 5757 5756 5756 5755 5755 5754 5752 5752 5751 5750 5749 5747 5747 5745 5745 5743 5743 5742 5741 5740 5739 5739 5738 5738 5737
5738 5739 5740 5741 5742 5744 5744 5745 5746 5746 5746 5747 5747 5747 5746 5746 5746 5745 5745 5744 5744 5743 5741 5740 5740 5739 5739 5738 5737 5736 5735 5733 5733 5732 5731 5730 5729 5728 5728 5727 5727 5726 5726